ONEWEB-0006, 44061

Orbit data source: Space-Track

ONEWEB-0006, 44061 is a payload satellite owned by One Web (UK) in LEO that was launched on Wed, 27 Feb 2019 UTC via a SOYUZ-ST-B launch vehicle from the French Guiana (FRGUI). Payload-class satellites include a variety of spacecraft equipped with specific instruments for various scientific and technological missions. These include communications satellites like Starlink; space stations such as the ISS; scientific satellites like the Hubble; Earth observation satellites from companies like Planet Labs, Umbra, and HawkEye 360; GPS; miniature CubeSats for education and research; and military/defense satellites.

Loading next visibility...
Identifier
44061, 2019-010E
Orbit
LEO
Country
Flag of UKUK
Related business
Manufacturer
Airbus/Toulouse
Mission
Operational Commercial Communications
Bus & Motor
ARROW, Unknown motor
Mass
148 kg wet, ~140 kg dry
Launch date (UTC)
2019-02-27 (7 years ago)
Launch vehicle
SOYUZ-ST-B
Launch site
French Guiana (FRGUI)
Object type
Payload
Rocket body
Debris
Shape & HBR
Trap Box + 2 Pan, 6.7 m
Radar Cross Section
3.464 m², Large (>1 m²)

Expand to show TLE details & history
Last TLE update: 9 hours ago

TLE from 9 hours ago
0 ONEWEB-0006
1 44061U 19010E   25343.12361373 -.00000069  00000-0 -21801-3 0  9991
2 44061  87.8995 297.0992 0001994  75.6055 284.5296 13.15546924326436
Epoch: 2025-12-09T02:58Z
TLE epoch observation values (Epoch: 2025-12-09T02:58:00.226Z)
Latitude
-0.00007°
Longitude
174.48545°
Altitude
1,204.293 km
Speed
7.252 km/s
True Right ascension
19h 48m 23s
True Declination
0° 00' 00"
Sunlit
Object was in daylight at epoch
Visualization orbit readout
Latitude
Unknown
Longitude
Unknown
Altitude
Unknown
Speed
Unknown
Apparent Right ascension
Unknown
Apparent Declination
Unknown
Sunlit
N/A
Visualization observer readout
Local Sidereal Time
09:49:41
Azimuth
Unknown
Elevation
Unknown
Doppler factor
Unknown
Orbital elements
Apogee altitude
1,200.4 km
Perigee altitude
1,197.378 km
Semi-major axis
7,577.026 km
Eccentricity
0.0002
Inclination
87.8995°
RAAN
297.0992°
Arg. of periapsis
75.6055°
True anomaly
284.50748°
Mean anomaly
284.5296°
Eccentric anomaly
284.51854°
Mean motion
3.29075 °/min
Orbital period
109.4 mins
BSTAR
-0.00021801
Loading maneuver chart data...
Computing Atmospheric mass density...
Loading historical data...
Loading historical data...
Loading historical data...
Loading historical data...
Loading historical data...
Loading historical data...
Loading historical data...
Other satellites on launch #10 in the year 2019 (2019-02-27 UTC)

Documentation

Showing up to 5 results
|